User: anonymous   Login
Location: Columbia
(38.9520°N, 92.3340°W)
Time: 14:07:44
(UTC-05:00)
Language:

Cosmos 1603 - Orbit

View from above orbital plane
View from above orbital plane
View from above satellite
View from above satellite

Ground track
Ground track

The orbit data is extracted from the following two-line orbital elements,

1 15333U 84106A   15141.73569941  .00000011  00000-0  30453-4 0  9991
2 15333 071.0287 238.3779 0022048 279.5433 189.1495 14.14006915581192
Epoch (UTC): 21 May 2015 17:39:24
Eccentricity: 0.0022048
inclination: 71.0287°
perigee height: 830 km
apogee height: 861 km
right ascension of ascending node: 238.3779°
argument of perigee: 279.5433°
revolutions per day: 14.14006915
mean anomaly at epoch: 189.1495°
orbit number at epoch: 58119

The dashed part of the orbit path shows where the satellite is in the earth's shadow,  

DLR